Driggs, ID

7:47 AM MDT on October 17, 2019 (GMT -0600)
Driggs

Weather History for KDIJ - September, 2019

Change the Weather History Date:

Wednesday, September 18, 2019

  Actual Average (KJAC) Record (KJAC)
Temperature  
Mean Temperature 50 °F -  
Max Temperature 70 °F 69 °F 81 °F (1962)
Min Temperature 30 °F 31 °F 15 °F (1971)
Degree Days  
Heating Degree Days 15    
Moisture  
Dew Point 30 °F    
Average Humidity 54    
Maximum Humidity 96    
Minimum Humidity 21    
Precipitation  
Precipitation 0.00 in - - ()
Sea Level Pressure  
Sea Level Pressure 30.00 in    
Wind  
Wind Speed 5 mph (South)    
Max Wind Speed 17 mph    
Max Gust Speed 24 mph    
Visibility 10 miles    
Events      
Averages and records for this station are not official NWS values.
T = Trace of Precipitation, MM = Missing Value Source: NWS Daily Summary

Daily Weather History Graph

Daily Weather History Graph

Search for Another Location

Airport or City:

Astronomy

Sep. 18, 2019 Rise Set
Actual Time 7:06 AM MDT 7:29 PM MDT
Civil Twilight 6:38 AM MDT 7:58 PM MDT
Nautical Twilight 6:04 AM MDT 8:31 PM MDT
Astronomical Twilight 5:29 AM MDT 9:06 PM MDT
Moon 9:57 PM MDT (9/18) 11:21 AM MDT (9/18)
Length of Visible Light 13h 19m
Length of Day
12h 22m
Waning Gibbous, 82% of the Moon is Illuminated
Sep 18
Waning Gibbous
Sep 21
Last Quarter
Sep 28
New
Oct 5
First Quarter
Oct 13
Full

Hourly Weather History & Observations

Time (MDT) Temp. Windchill Dew Point Humidity Pressure Visibility Wind Dir Wind Speed Gust Speed Precip Events Conditions
12:56 AM 36.0 °F - 32.0 °F 86% 30.14 in 10.0 mi Calm Calm - N/A   Clear
1:56 AM 30.9 °F 27.5 °F 30.0 °F 96% 30.15 in 10.0 mi SE 3.5 mph - N/A   Clear
2:56 AM 34.0 °F - 30.9 °F 89% 30.12 in 10.0 mi Calm Calm - N/A   Clear
3:56 AM 32.0 °F - 30.0 °F 92% 30.11 in 10.0 mi Calm Calm - N/A   Clear
4:56 AM 32.0 °F 26.4 °F 30.0 °F 92% 30.10 in 10.0 mi NE 5.8 mph - N/A   Clear
5:56 AM 32.0 °F 27.5 °F 28.9 °F 88% 30.09 in 10.0 mi SE 4.6 mph - N/A   Clear
6:56 AM 33.1 °F - 28.9 °F 85% 30.07 in 10.0 mi Calm Calm - N/A   Clear
7:56 AM 34.0 °F 28.0 °F 30.9 °F 89% 30.09 in 10.0 mi NNE 6.9 mph - N/A   Clear
8:56 AM 45.0 °F 43.5 °F 34.0 °F 65% 30.08 in 10.0 mi ESE 3.5 mph - N/A   Clear
9:56 AM 52.0 °F - 32.0 °F 47% 30.04 in 10.0 mi SSW 3.5 mph - N/A   Clear
10:56 AM 61.0 °F - 27.0 °F 27% 30.00 in 10.0 mi South 11.5 mph 18.4 mph N/A   Clear
11:56 AM 63.0 °F - 26.1 °F 25% 29.99 in 10.0 mi SSW 17.3 mph 21.9 mph N/A   Clear
12:56 PM 64.0 °F - 25.0 °F 23% 29.97 in 10.0 mi South 6.9 mph 17.3 mph N/A   Clear
1:56 PM 66.0 °F - 27.0 °F 23% 29.96 in 10.0 mi SSW 12.7 mph 18.4 mph N/A   Clear
2:56 PM 68.0 °F - 27.0 °F 21% 29.92 in 10.0 mi SW 12.7 mph 20.7 mph N/A   Scattered Clouds
3:56 PM 70.0 °F - 28.0 °F 21% 29.90 in 10.0 mi SSW 16.1 mph 24.2 mph N/A   Partly Cloudy
4:56 PM 69.1 °F - 27.0 °F 21% 29.89 in 10.0 mi SSW 10.4 mph - N/A   Clear
5:56 PM 68.0 °F - 27.0 °F 21% 29.89 in 10.0 mi SSW 13.8 mph - N/A   Clear
6:56 PM 61.0 °F - 27.0 °F 27% 29.92 in 10.0 mi SW 8.1 mph - N/A   Clear
8:56 PM 55.0 °F - 30.9 °F 40% 29.91 in 10.0 mi East 8.1 mph - N/A   Clear
9:56 PM 52.0 °F - 35.1 °F 53% 29.88 in 10.0 mi ENE 4.6 mph - N/A   Clear
10:56 PM 50.0 °F - 35.1 °F 57% 29.84 in 10.0 mi NW 4.6 mph - N/A   Clear
11:56 PM 48.0 °F - 35.1 °F 61% 29.83 in 10.0 mi NNE 4.6 mph - N/A   Clear